Location: Unspecified
(33.6682°S, 0.0000°E)
Time: 03:21:38
(UTC+00:00)

Tiros 1 despin weight - Pass Details

Date: 20 June 2019
Orbit: 594 x 642 km, 48.2° (Epoch: 21 July)

Event Time Altitude Azimuth Distance (km) Brightness Sun altitude
Rises 11:15:39 0° 305° (NW) 2,909 ? 31.9°
Reaches altitude 10° 11:17:58 10° 302° (WNW) 2,014 ? 32.0°
Maximum altitude 11:22:36 74° 217° (SW) 672 ? 32.2°
Drops below altitude 10° 11:27:21 10° 131° (SE) 2,053 ? 32.3°
Sets 11:29:43 0° 129° (SE) 2,969 ? 32.4°
